DW6455 Orivesi FI current weather conditions

sailwx.info

Wind from 022 at 4 knots gusting 13

Air temperature -9.4° C
Dewpoint -10.8° C

Last reported at 2018-Feb-25 23:07 UTC.
Time now 2018-Feb-25 23:50 UTC

Location: N 61°39' E 024°21'.
View on Google Maps.

See reports from other nearby stations

  
Tides and Currents Weather Stations Pressure Air Temp Water Temp Dewpoint Dewpoint Depression Visibility Wind Speed Wind Dir Waves Ship Positions
date/time (UTC)wind fromknots sea level pressurealtimeterstation pressurevisibilityair tempwater tempwave heightnotes
2018-Feb-25 23:07 022 4 gusting 13 -9.4
2018-Feb-25 23:02 013 4 gusting 13 -9.4
2018-Feb-25 22:57 351 5 gusting 13 -9.4
2018-Feb-25 22:52 350 6 gusting 13 -9.4
2018-Feb-25 22:47 028 6 gusting 13 -9.4
2018-Feb-25 22:42 025 7 gusting 13 -9.4
2018-Feb-25 22:37 044 6 gusting 13 -9.4
2018-Feb-25 22:32 019 6 gusting 13 -9.4
2018-Feb-25 22:27 026 5 gusting 11 -9.4
2018-Feb-25 22:22 038 6 gusting 11 -9.4
2018-Feb-25 22:17 015 6 gusting 11 -9.4
2018-Feb-25 22:12 054 5 gusting 14 -9.4
2018-Feb-25 22:07 028 5 gusting 14 -9.4
2018-Feb-25 22:02 345 5 gusting 14 -8.9
2018-Feb-25 21:57 005 6 gusting 13 -8.9
2018-Feb-25 21:52 005 6 gusting 13 -8.9
2018-Feb-25 21:47 015 5 gusting 13 -8.9
2018-Feb-25 21:42 032 6 gusting 13 -8.9
2018-Feb-25 21:37 015 6 gusting 13 -8.9
2018-Feb-25 21:32 346 6 gusting 13 -8.9
2018-Feb-25 21:27 023 6 gusting 13 -8.9
2018-Feb-25 21:22 -8.9
2018-Feb-25 21:17 005 7 gusting 13 -8.9
2018-Feb-25 21:12 005 6 gusting 13 -8.9
2018-Feb-25 21:07 -8.9
2018-Feb-25 21:02 344 6 gusting 13 -8.9
2018-Feb-25 20:57 019 6 gusting 13 -8.9
2018-Feb-25 20:52 005 6 gusting 13 -8.9
2018-Feb-25 20:47 030 6 gusting 13 -8.9
2018-Feb-25 20:42 350 5 gusting 13 -8.9
2018-Feb-25 20:37 022 5 gusting 13 -8.9
2018-Feb-25 20:32 009 6 gusting 13 -8.9
2018-Feb-25 20:27 015 6 gusting 13 -8.9
2018-Feb-25 20:22 -8.9
2018-Feb-25 20:17 350 6 gusting 13 -8.9
2018-Feb-25 20:12 330 6 gusting 10 -8.9
2018-Feb-25 20:07 350 6 gusting 10 -8.9
2018-Feb-25 20:02 340 6 gusting 10 -8.9
2018-Feb-25 19:57 024 6 gusting 11 -8.9
2018-Feb-25 19:52 014 5 gusting 11 -8.9
2018-Feb-25 19:47 -9.4
2018-Feb-25 19:42 017 5 gusting 10 -9.4
2018-Feb-25 19:37 005 4 gusting 10 -9.4
2018-Feb-25 19:32 005 4 gusting 10 -9.4
2018-Feb-25 19:27 020 4 gusting 10 -9.4
2018-Feb-25 19:22 010 4 gusting 10 -9.4
2018-Feb-25 19:17 355 4 gusting 8 -9.4
2018-Feb-25 19:12 343 4 gusting 8 -9.4
2018-Feb-25 19:07 012 4 gusting 10 -9.4
2018-Feb-25 19:02 355 4 gusting 10 -9.4
2018-Feb-25 18:57 340 4 gusting 10 -8.9
2018-Feb-25 18:52 340 5 gusting 10 -8.9
2018-Feb-25 18:47 347 4 gusting 10 -8.9
2018-Feb-25 18:42 345 4 gusting 11 -8.9
2018-Feb-25 18:37 337 5 gusting 11 -8.9
2018-Feb-25 18:32 340 6 gusting 10 -8.9
2018-Feb-25 18:27 348 6 gusting 10 -8.9
2018-Feb-25 18:22 342 5 gusting 10 -8.9
2018-Feb-25 18:17 346 5 gusting 10 -8.9
2018-Feb-25 18:12 022 6 gusting 10 -8.9
2018-Feb-25 18:07 349 5 gusting 10 -8.9
2018-Feb-25 18:02 005 5 gusting 10 -8.9
2018-Feb-25 17:57 350 6 gusting 10 -8.3
2018-Feb-25 17:52 -8.3
2018-Feb-25 17:47 005 5 gusting 9 -8.3
2018-Feb-25 17:42 355 5 gusting 9 -8.3
2018-Feb-25 17:37 355 4 gusting 9 -8.3
2018-Feb-25 17:32 355 3 gusting 10 -8.3
2018-Feb-25 17:27 355 4 gusting 10 -8.3
2018-Feb-25 17:22 012 4 gusting 10 -7.8
2018-Feb-25 17:17 010 4 gusting 8 -7.8
2018-Feb-25 17:12 005 4 gusting 8 -7.8
2018-Feb-25 17:07 015 4 gusting 9 -7.8
2018-Feb-25 17:02 349 4 gusting 9 -7.2
2018-Feb-25 16:57 355 4 gusting 9 -7.2
2018-Feb-25 16:52 024 4 gusting 9 -7.2
2018-Feb-25 16:47 016 4 gusting 11 -7.2
2018-Feb-25 16:42 005 4 gusting 11 -6.7
2018-Feb-25 16:37 351 4 gusting 11 -6.7
2018-Feb-25 16:32 009 4 gusting 11 -6.7
2018-Feb-25 16:27 038 5 gusting 11 -6.7
2018-Feb-25 16:22 013 6 gusting 11 -6.7
2018-Feb-25 16:17 005 6 gusting 12 -6.7
2018-Feb-25 16:12 012 6 gusting 12 -6.1
2018-Feb-25 16:07 019 5 gusting 10 -6.1
2018-Feb-25 16:02 019 4 gusting 10 -6.1
2018-Feb-25 15:57 027 4 gusting 11 -6.1
2018-Feb-25 15:52 015 4 gusting 11 -6.1
2018-Feb-25 15:47 019 5 gusting 11 -6.1
2018-Feb-25 15:42 020 5 gusting 11 -6.1
2018-Feb-25 15:37 349 5 gusting 11 -6.1
2018-Feb-25 15:32 338 5 gusting 11 -6.1
2018-Feb-25 15:27 336 6 gusting 12 -5.6
2018-Feb-25 15:22 036 5 gusting 12 -5.6
2018-Feb-25 15:17 040 6 gusting 15 -5.6
2018-Feb-25 15:12 -5.6
2018-Feb-25 15:07 351 7 gusting 15 -5.6
2018-Feb-25 15:02 -5.6
2018-Feb-25 14:57 014 7 gusting 15 -5.6
2018-Feb-25 14:52 010 7 gusting 15 -5.0
2018-Feb-25 14:47 034 6 gusting 13 -5.0
2018-Feb-25 14:42 017 6 gusting 13 -5.0
2018-Feb-25 14:37 021 6 gusting 14 -5.0
2018-Feb-25 14:32 019 7 gusting 14 -5.0
2018-Feb-25 14:27 017 7 gusting 13 -5.0
2018-Feb-25 14:22 341 7 gusting 13 -4.4
2018-Feb-25 14:17 346 6 gusting 13 -4.4
2018-Feb-25 14:12 -4.4
2018-Feb-25 14:07 355 7 gusting 13 -4.4
2018-Feb-25 14:02 344 6 gusting 13 -4.4
2018-Feb-25 13:57 355 6 gusting 13 -4.4
2018-Feb-25 13:52 066 6 gusting 13 -4.4
2018-Feb-25 13:47 022 6 gusting 13 -4.4
2018-Feb-25 13:42 005 5 gusting 12 -4.4
2018-Feb-25 13:37 331 6 gusting 12 -4.4
2018-Feb-25 13:32 347 6 gusting 13 -4.4
2018-Feb-25 13:27 355 6 gusting 13 -4.4
2018-Feb-25 13:22 020 6 gusting 13 -4.4
2018-Feb-25 13:17 351 6 gusting 13 -4.4
2018-Feb-25 13:12 022 6 gusting 13 -4.4
2018-Feb-25 13:07 342 6 gusting 13 -4.4
2018-Feb-25 13:02 -4.4
2018-Feb-25 12:57 005 7 gusting 14 -4.4
2018-Feb-25 12:52 005 7 gusting 17 -4.4
2018-Feb-25 12:47 005 7 gusting 17 -4.4
2018-Feb-25 12:42 012 7 gusting 13 -4.4
2018-Feb-25 12:37 348 7 gusting 13 -4.4
2018-Feb-25 12:32 -4.4
2018-Feb-25 12:27 019 6 gusting 13 -5.0
2018-Feb-25 12:22 345 7 gusting 13 -5.0
2018-Feb-25 12:17 355 7 gusting 13 -5.0
2018-Feb-25 12:12 019 7 gusting 13 -5.0
2018-Feb-25 12:07 331 6 gusting 13 -5.0
2018-Feb-25 12:02 005 6 gusting 13 -5.0
2018-Feb-25 11:57 328 7 gusting 13 -5.0
2018-Feb-25 11:52 -5.0
2018-Feb-25 11:47 -5.0
2018-Feb-25 11:42 355 7 gusting 16 -5.0
2018-Feb-25 11:37 018 6 gusting 16 -5.0
2018-Feb-25 11:32 019 6 gusting 13 -5.0
2018-Feb-25 11:27 346 6 gusting 13 -5.0
2018-Feb-25 11:22 024 6 gusting 13 -5.0
2018-Feb-25 11:17 024 6 gusting 10 -5.0
2018-Feb-25 11:12 -5.0
2018-Feb-25 11:07 040 3 gusting 12 -5.0
2018-Feb-25 11:02 013 5 gusting 12 -5.0
2018-Feb-25 10:57 019 6 gusting 12 -5.0
2018-Feb-25 10:52 035 5 gusting 12 -5.0
2018-Feb-25 10:47 059 5 gusting 13 -5.6
2018-Feb-25 10:42 017 6 gusting 13 -5.6
2018-Feb-25 10:37 043 5 gusting 13 -5.6
2018-Feb-25 10:32 355 5 gusting 13 -5.6
2018-Feb-25 10:27 -5.6
2018-Feb-25 10:22 035 7 gusting 13 -5.6
2018-Feb-25 10:17 022 6 gusting 13 -5.6
2018-Feb-25 10:12 013 6 gusting 13 -5.6
2018-Feb-25 10:07 043 6 gusting 13 -5.6
2018-Feb-25 10:02 033 6 gusting 13 -6.1
2018-Feb-25 09:57 028 6 gusting 11 -6.1
2018-Feb-25 09:52 046 6 gusting 11 -6.1
2018-Feb-25 09:47 024 6 gusting 11 -6.1
2018-Feb-25 09:42 026 5 gusting 11 -6.1
2018-Feb-25 09:37 349 6 gusting 13 -6.7
2018-Feb-25 09:32 013 6 gusting 13 -6.7
2018-Feb-25 09:27 011 6 gusting 15 -6.7
2018-Feb-25 09:22 355 7 gusting 15 -6.7
2018-Feb-25 09:17 019 6 gusting 13 -6.7
2018-Feb-25 09:12 028 6 gusting 13 -6.7
2018-Feb-25 09:07 034 6 gusting 13 -7.2
2018-Feb-25 09:02 015 6 gusting 13 -7.2
2018-Feb-25 08:57 355 6 gusting 13 -7.2
2018-Feb-25 08:52 009 6 gusting 13 -7.2
2018-Feb-25 08:47 023 7 gusting 13 -7.2
2018-Feb-25 08:42 025 6 gusting 13 -7.8
2018-Feb-25 08:37 340 7 gusting 13 -7.8
2018-Feb-25 08:32 040 6 gusting 13 -7.8
2018-Feb-25 08:27 012 6 gusting 13 -7.8
2018-Feb-25 08:22 034 5 gusting 8 -8.3
2018-Feb-25 08:17 034 4 gusting 8 -8.3
2018-Feb-25 08:12 038 4 gusting 11 -8.3
2018-Feb-25 08:07 017 4 gusting 11 -8.3
2018-Feb-25 08:02 017 5 gusting 12 -8.9
2018-Feb-25 07:57 331 6 gusting 12 -8.9
2018-Feb-25 07:52 013 6 gusting 12 -8.9
2018-Feb-25 07:47 350 6 gusting 12 -9.4
2018-Feb-25 07:42 027 6 gusting 9 -9.4
2018-Feb-25 07:37 009 5 gusting 9 -9.4
2018-Feb-25 07:32 341 5 gusting 10 -10.0
2018-Feb-25 07:27 015 4 gusting 10 -10.0
2018-Feb-25 07:22 011 4 gusting 10 -10.6
2018-Feb-25 07:17 -10.6
2018-Feb-25 07:12 005 4 gusting 9 -10.6
2018-Feb-25 07:07 018 5 gusting 9 -10.6
2018-Feb-25 07:02 005 5 gusting 9 -10.6
2018-Feb-25 06:57 355 5 gusting 9 -11.1
2018-Feb-25 06:52 -11.1
2018-Feb-25 06:47 350 5 gusting 9 -11.1
2018-Feb-25 06:42 343 4 gusting 11 -11.1
2018-Feb-25 06:37 005 6 gusting 11 -11.7
2018-Feb-25 06:32 011 6 gusting 12 -11.7
2018-Feb-25 06:27 355 6 gusting 12 -11.7
2018-Feb-25 06:22 005 6 gusting 10 -11.7
2018-Feb-25 06:17 340 6 gusting 10 -11.7
2018-Feb-25 06:12 005 6 gusting 9 -12.2
2018-Feb-25 06:07 005 6 gusting 8 -12.2
2018-Feb-25 06:02 005 5 gusting 8 -12.2
2018-Feb-25 05:57 023 3 gusting 8 -12.2
2018-Feb-25 05:52 015 3 gusting 7 -12.2
2018-Feb-25 05:47 015 3 gusting 7 -12.8
2018-Feb-25 05:42 020 4 gusting 8 -12.8
2018-Feb-25 05:37 015 4 gusting 8 -12.8
2018-Feb-25 05:32 019 4 gusting 9 -12.8
2018-Feb-25 05:27 015 4 gusting 9 -12.8
2018-Feb-25 05:22 017 4 gusting 9 -12.8
2018-Feb-25 05:17 016 5 gusting 9 -12.8
2018-Feb-25 05:12 005 5 gusting 9 -12.8
2018-Feb-25 05:07 018 5 gusting 10 -12.2
2018-Feb-25 05:02 -12.2
2018-Feb-25 04:57 019 5 gusting 10 -12.2
2018-Feb-25 04:52 013 5 gusting 10 -12.2
2018-Feb-25 04:47 013 5 gusting 9 -12.2
2018-Feb-25 04:42 029 5 gusting 9 -12.2
2018-Feb-25 04:38 -12.2
2018-Feb-25 04:32 005 5 gusting 9 -12.2
2018-Feb-25 04:27 019 5 gusting 9 -12.2
2018-Feb-25 04:22 005 4 gusting 9 -12.2
2018-Feb-25 04:17 025 4 gusting 8 -12.2
2018-Feb-25 04:12 -12.2
2018-Feb-25 04:07 348 4 gusting 8 -12.2
2018-Feb-25 04:02 005 4 gusting 8 -12.2
2018-Feb-25 03:57 019 4 gusting 8 -12.2
2018-Feb-25 03:52 009 4 gusting 7 -12.2
2018-Feb-25 03:47 019 3 gusting 7 -12.2
2018-Feb-25 03:42 027 3 gusting 8 -12.2
2018-Feb-25 03:37 021 3 gusting 8 -12.8
2018-Feb-25 03:32 020 3 gusting 9 -12.8
2018-Feb-25 03:27 011 3 gusting 9 -12.8
2018-Feb-25 03:22 355 3 gusting 8 -12.8
2018-Feb-25 03:17 020 3 gusting 8 -12.8
2018-Feb-25 03:12 027 3 gusting 8 -12.8
2018-Feb-25 03:07 015 3 gusting 6 -12.8
2018-Feb-25 03:02 025 3 gusting 6 -12.8
2018-Feb-25 02:57 005 3 gusting 6 -13.3
2018-Feb-25 02:52 326 3 gusting 6 -13.3
2018-Feb-25 02:47 009 2 gusting 6 -13.3
2018-Feb-25 02:42 355 2 gusting 6 -13.3
2018-Feb-25 02:37 017 3 gusting 6 -13.3
2018-Feb-25 02:32 340 3 gusting 4 -13.3
2018-Feb-25 02:27 017 2 gusting 4 -13.3
2018-Feb-25 02:22 009 1 gusting 4 -13.3
2018-Feb-25 02:17 355 1 gusting 5 -13.3
2018-Feb-25 02:12 355 2 gusting 5 -13.3
2018-Feb-25 02:07 355 2 gusting 5 -13.3
2018-Feb-25 02:02 355 2 gusting 6 -13.3
2018-Feb-25 01:57 011 2 gusting 6 -13.3
2018-Feb-25 01:52 011 2 gusting 7 -13.3
2018-Feb-25 01:47 017 3 gusting 7 -13.3
2018-Feb-25 01:42 013 3 gusting 7 -13.3
2018-Feb-25 01:37 024 3 gusting 7 -13.3
2018-Feb-25 01:32 023 2 gusting 4 -13.9
2018-Feb-25 01:27 017 1 gusting 4 -13.9
2018-Feb-25 01:22 351 0 gusting 4 -13.9
2018-Feb-25 01:17 351 1 gusting 4 -13.9
2018-Feb-25 01:12 350 2 gusting 5 -13.9
2018-Feb-25 01:07 355 1 gusting 5 -13.9
2018-Feb-25 01:02 355 1 gusting 6 -13.9
2018-Feb-25 00:57 355 2 gusting 6 -13.9
2018-Feb-25 00:52 355 3 gusting 6 -13.9
2018-Feb-25 00:47 350 2 gusting 6 -13.9
2018-Feb-25 00:42 355 2 gusting 6 -13.9
2018-Feb-25 00:37 345 2 gusting 6 -14.4
2018-Feb-25 00:32 355 2 gusting 6 -14.4
2018-Feb-25 00:27 012 2 gusting 6 -14.4
2018-Feb-25 00:22 018 3 gusting 5 -14.4
2018-Feb-25 00:17 013 3 gusting 5 -14.4
2018-Feb-25 00:12 013 2 gusting 6 -14.4
2018-Feb-25 00:07 355 2 gusting 6 -14.4
2018-Feb-25 00:02 355 2 gusting 6 -14.4
2018-Feb-24 23:57 355 2 gusting 6 -14.4
2018-Feb-24 23:52 005 2 gusting 7 -14.4
2018-Feb-24 23:47 020 2 gusting 7 -14.4
2018-Feb-24 23:42 011 3 gusting 7 -14.4
2018-Feb-24 23:37 015 3 gusting 7 -14.4
2018-Feb-24 23:32 017 3 gusting 7 -14.4
2018-Feb-24 23:27 044 4 gusting 7 -15.0
2018-Feb-24 23:22 036 4 gusting 7 -15.0
2018-Feb-24 23:17 030 3 gusting 7 -15.0
2018-Feb-24 23:12 032 3 gusting 7 -15.6
2018-Feb-24 23:07 016 3 gusting 6 -15.6
2018-Feb-24 23:02 023 3 gusting 6 -15.6
2018-Feb-24 22:57 025 3 gusting 6 -16.1
2018-Feb-24 22:52 025 3 gusting 7 -16.1
2018-Feb-24 22:47 015 3 gusting 7 -16.1
2018-Feb-24 22:42 034 3 gusting 7 -16.7
2018-Feb-24 22:37 024 3 gusting 6 -16.7
2018-Feb-24 22:32 019 3 gusting 6 -16.7
2018-Feb-24 22:27 017 3 gusting 6 -16.7
2018-Feb-24 22:22 020 3 gusting 6 -16.7
2018-Feb-24 22:17 016 3 gusting 6 -16.7
2018-Feb-24 22:12 011 2 gusting 6 -16.7
2018-Feb-24 22:07 012 2 gusting 6 -16.1
2018-Feb-24 22:02 012 2 gusting 6 -16.1
2018-Feb-24 21:57 012 2 gusting 4 -16.1
2018-Feb-24 21:52 012 2 gusting 4 -16.1
2018-Feb-24 21:47 011 2 gusting 4 -16.1
2018-Feb-24 21:42 005 2 gusting 4 -16.1
2018-Feb-24 21:37 005 2 gusting 5 -16.1
2018-Feb-24 21:32 005 2 gusting 5 -16.1
2018-Feb-24 21:27 015 3 gusting 6 -15.6
2018-Feb-24 21:22 024 3 gusting 6 -15.6
2018-Feb-24 21:17 024 3 gusting 4 -15.6
2018-Feb-24 21:12 017 2 gusting 4 -15.6
2018-Feb-24 21:07 019 2 gusting 6 -15.6
2018-Feb-24 21:02 019 2 gusting 6 -15.0
2018-Feb-24 20:57 013 2 gusting 6 -15.0
2018-Feb-24 20:52 013 2 gusting 6 -15.0
2018-Feb-24 20:47 019 2 gusting 6 -15.0
2018-Feb-24 20:42 005 3 gusting 6 -15.0
2018-Feb-24 20:37 020 3 gusting 6 -15.0
2018-Feb-24 20:32 019 3 gusting 6 -15.0
2018-Feb-24 20:27 022 3 gusting 7 -15.0
2018-Feb-24 20:22 018 3 gusting 7 -15.0
2018-Feb-24 20:17 015 3 gusting 6 -15.0
2018-Feb-24 20:12 015 3 gusting 6 -15.0
2018-Feb-24 20:07 022 3 gusting 4 -15.0
2018-Feb-24 20:02 005 2 gusting 4 -15.0
2018-Feb-24 19:57 005 2 gusting 4 -15.0
2018-Feb-24 19:52 012 2 gusting 4 -15.0
2018-Feb-24 19:47 012 1 gusting 4 -15.0
2018-Feb-24 19:42 011 1 gusting 3 -15.0
2018-Feb-24 19:37 011 2 gusting 3 -15.0
2018-Feb-24 19:32 011 2 gusting 6 -14.4
2018-Feb-24 19:27 011 2 gusting 6 -14.4
2018-Feb-24 19:22 011 2 gusting 6 -14.4
2018-Feb-24 19:17 011 2 gusting 6 -14.4
2018-Feb-24 19:12 010 2 gusting 6 -14.4
2018-Feb-24 19:07 005 3 gusting 4 -14.4
2018-Feb-24 19:02 014 2 gusting 4 -14.4
2018-Feb-24 18:57 015 2 gusting 4 -14.4
2018-Feb-24 18:52 015 2 gusting 4 -14.4
2018-Feb-24 18:47 014 2 gusting 4 -14.4
2018-Feb-24 18:42 015 2 gusting 4 -14.4
2018-Feb-24 18:37 015 2 gusting 4 -14.4
2018-Feb-24 18:32 013 1 gusting 3 -14.4
2018-Feb-24 18:27 013 1 gusting 3 -14.4
2018-Feb-24 18:22 013 1 gusting 6 -14.4
2018-Feb-24 18:17 013 1 gusting 6 -14.4
2018-Feb-24 18:12 019 2 gusting 6 -13.9
2018-Feb-24 18:07 020 2 gusting 6 -13.9
2018-Feb-24 18:02 016 2 gusting 5 -13.9
2018-Feb-24 17:57 021 2 gusting 5 -13.9
2018-Feb-24 17:52 022 2 gusting 6 -14.4
2018-Feb-24 17:47 022 2 gusting 6 -14.4
2018-Feb-24 17:42 023 3 gusting 7 -14.4
2018-Feb-24 17:37 023 4 gusting 7 -14.4
2018-Feb-24 17:32 018 3 gusting 7 -14.4
2018-Feb-24 17:27 023 3 gusting 7 -14.4
2018-Feb-24 17:22 015 3 gusting 7 -14.4
2018-Feb-24 17:17 024 3 gusting 6 -14.4
2018-Feb-24 17:12 026 3 gusting 6 -14.4
2018-Feb-24 17:07 016 3 gusting 4 -14.4
2018-Feb-24 17:02 015 3 gusting 4 -14.4
2018-Feb-24 16:57 025 3 gusting 4 -14.4
2018-Feb-24 16:52 -14.4
2018-Feb-24 16:47 -14.4
2018-Feb-24 16:42 -14.4
2018-Feb-24 16:37 009 2 gusting 5 -14.4
2018-Feb-24 16:32 355 2 gusting 5 -14.4
2018-Feb-24 16:27 355 2 gusting 5 -14.4
2018-Feb-24 16:22 355 2 gusting 5 -13.9
2018-Feb-24 16:17 355 2 gusting 5 -13.9
2018-Feb-24 16:12 355 2 gusting 5 -13.9
2018-Feb-24 16:07 355 2 gusting 6 -13.9
2018-Feb-24 16:02 355 2 gusting 6 -13.3
2018-Feb-24 15:57 355 2 gusting 6 -13.3
2018-Feb-24 15:52 355 3 gusting 6 -13.3
2018-Feb-24 15:47 011 2 gusting 4 -13.3
2018-Feb-24 15:42 351 2 gusting 4 -12.8
2018-Feb-24 15:37 351 2 gusting 5 -12.8
2018-Feb-24 15:32 355 2 gusting 5 -12.8
2018-Feb-24 15:27 355 2 gusting 5 -12.2
2018-Feb-24 15:22 349 2 gusting 5 -12.2
2018-Feb-24 15:17 348 2 gusting 5 -12.2
2018-Feb-24 15:12 348 2 gusting 5 -11.7
2018-Feb-24 15:07 350 2 gusting 6 -11.7
2018-Feb-24 15:02 355 3 gusting 6 -11.7
2018-Feb-24 14:57 351 3 gusting 6 -11.7
2018-Feb-24 14:52 348 3 gusting 6 -11.1
2018-Feb-24 14:47 355 3 gusting 8 -11.1
2018-Feb-24 14:42 -11.1
2018-Feb-24 14:37 036 4 gusting 8 -11.1
2018-Feb-24 14:32 044 4 gusting 8 -11.1
2018-Feb-24 14:27 032 3 gusting 8 -11.1
2018-Feb-24 14:22 005 3 gusting 8 -11.1
2018-Feb-24 14:17 023 4 gusting 10 -11.1
2018-Feb-24 14:12 021 4 gusting 10 -10.6
2018-Feb-24 14:07 055 4 gusting 10 -10.6
2018-Feb-24 14:02 057 5 gusting 10 -10.6
2018-Feb-24 13:57 040 5 gusting 11 -11.1
2018-Feb-24 13:52 028 4 gusting 11 -11.1
2018-Feb-24 13:47 039 5 gusting 11 -11.1
2018-Feb-24 13:42 045 6 gusting 11 -11.1
2018-Feb-24 13:37 033 6 gusting 11 -11.1
2018-Feb-24 13:32 030 6 gusting 11 -11.1
2018-Feb-24 13:27 059 5 gusting 10 -11.1
2018-Feb-24 13:22 022 5 gusting 10 -11.1
2018-Feb-24 13:17 045 5 gusting 10 -11.1
2018-Feb-24 13:12 015 4 gusting 10 -11.1
2018-Feb-24 13:07 046 4 gusting 10 -11.1
2018-Feb-24 13:02 036 5 gusting 10 -11.1
2018-Feb-24 12:57 038 5 gusting 10 -11.1
2018-Feb-24 12:52 038 5 gusting 10 -11.1
2018-Feb-24 12:47 061 5 gusting 9 -11.1
2018-Feb-24 12:42 030 5 gusting 9 -11.1
2018-Feb-24 12:37 029 4 gusting 10 -11.1
2018-Feb-24 12:32 046 5 gusting 10 -11.7
2018-Feb-24 12:27 054 4 gusting 10 -11.7
2018-Feb-24 12:22 032 4 gusting 10 -11.7
2018-Feb-24 12:17 019 4 gusting 9 -11.7
2018-Feb-24 12:12 037 3 gusting 9 -11.7
2018-Feb-24 12:07 052 4 gusting 10 -11.7
2018-Feb-24 12:02 069 4 gusting 10 -11.7
2018-Feb-24 11:57 045 5 gusting 10 -11.7
2018-Feb-24 11:52 071 6 gusting 10 -11.7
2018-Feb-24 11:47 005 6 gusting 10 -11.7
2018-Feb-24 11:42 023 5 gusting 10 -11.7
2018-Feb-24 11:37 035 4 gusting 9 -11.7
2018-Feb-24 11:32 046 5 gusting 9 -11.7
2018-Feb-24 11:27 036 4 gusting 11 -11.7
2018-Feb-24 11:22 053 5 gusting 11 -11.7
2018-Feb-24 11:17 042 6 gusting 10 -12.2
2018-Feb-24 11:12 030 5 gusting 10 -12.2
2018-Feb-24 11:07 344 5 gusting 10 -12.2
2018-Feb-24 11:02 028 5 gusting 10 -12.2
2018-Feb-24 10:57 026 5 gusting 10 -12.2
2018-Feb-24 10:52 043 5 gusting 10 -12.2
2018-Feb-24 10:47 030 4 gusting 9 -12.2
2018-Feb-24 10:42 036 4 gusting 9 -12.8
2018-Feb-24 10:37 043 3 gusting 11 -12.8
2018-Feb-24 10:32 046 3 gusting 11 -12.8
2018-Feb-24 10:27 009 3 gusting 11 -12.8
2018-Feb-24 10:22 005 5 gusting 11 -12.8
2018-Feb-24 10:17 348 6 gusting 10 -13.3
2018-Feb-24 10:12 005 6 gusting 10 -13.3
2018-Feb-24 10:07 031 4 gusting 10 -13.3
2018-Feb-24 10:02 029 5 gusting 10 -13.3
2018-Feb-24 09:57 047 5 gusting 10 -13.3
2018-Feb-24 09:52 017 5 gusting 10 -13.9
2018-Feb-24 09:47 009 4 gusting 8 -13.9
2018-Feb-24 09:42 350 4 gusting 8 -13.9
2018-Feb-24 09:37 005 4 gusting 7 -14.4
2018-Feb-24 09:32 035 3 gusting 7 -14.4
2018-Feb-24 09:27 005 3 gusting 8 -14.4
2018-Feb-24 09:22 024 4 gusting 8 -14.4
2018-Feb-24 09:17 060 3 gusting 7 -15.0
2018-Feb-24 09:12 034 2 gusting 7 -15.0
2018-Feb-24 09:07 037 2 gusting 7 -15.0
2018-Feb-24 09:02 022 3 gusting 8 -15.6
2018-Feb-24 08:57 021 3 gusting 8 -15.6
2018-Feb-24 08:52 031 4 gusting 7 -15.6
2018-Feb-24 08:47 029 3 gusting 7 -15.6
2018-Feb-24 08:42 048 2 gusting 4 -16.1
2018-Feb-24 08:37 009 1 gusting 4 -16.1
2018-Feb-24 08:32 028 1 gusting 9 -16.1
2018-Feb-24 08:28 028 1 gusting 9 -16.7
2018-Feb-24 08:22 028 3 gusting 9 -16.7
2018-Feb-24 08:17 035 3 gusting 9 -16.7
2018-Feb-24 08:12 035 3 gusting 6 -16.7
2018-Feb-24 08:07 021 3 gusting 6 -16.7
2018-Feb-24 08:02 032 2 gusting 9 -17.2
2018-Feb-24 07:57 069 2 gusting 9 -17.2
2018-Feb-24 07:52 044 3 gusting 9 -17.2
2018-Feb-24 07:47 038 4 gusting 9 -17.2
2018-Feb-24 07:42 037 4 gusting 6 -17.8
2018-Feb-24 07:37 032 3 gusting 6 -17.8
2018-Feb-24 07:32 019 2 gusting 4 -18.3
2018-Feb-24 07:27 005 2 gusting 4 -18.3
2018-Feb-24 07:22 005 2 gusting 4 -18.3
2018-Feb-24 07:17 005 1 gusting 4 -18.9
2018-Feb-24 07:12 005 1 gusting 4 -18.9
2018-Feb-24 07:07 005 1 gusting 3 -18.9
2018-Feb-24 07:02 005 1 gusting 3 -19.4
2018-Feb-24 06:57 005 0 gusting 3 -19.4
2018-Feb-24 06:52 005 0 gusting 3 -19.4
2018-Feb-24 06:47 005 1 gusting 3 -19.4
2018-Feb-24 06:42 005 1 gusting 3 -19.4
2018-Feb-24 06:37 005 1 gusting 3 -19.4
2018-Feb-24 06:32 005 1 gusting 2 -19.4
2018-Feb-24 06:27 005 1 gusting 2 -19.4
2018-Feb-24 06:22 005 1 gusting 2 -19.4
2018-Feb-24 06:17 005 1 gusting 2 -20.0
2018-Feb-24 06:12 005 1 gusting 2 -20.0
2018-Feb-24 06:07 005 1 gusting 2 -19.4
2018-Feb-24 06:02 005 1 gusting 2 -19.4
2018-Feb-24 05:57 005 1 gusting 2 -19.4
2018-Feb-24 05:52 005 1 gusting 2 -19.4
2018-Feb-24 05:47 005 1 gusting 2 -19.4
2018-Feb-24 05:42 005 1 gusting 2 -19.4
2018-Feb-24 05:37 005 1 gusting 2 -19.4
2018-Feb-24 05:32 005 1 gusting 3 -19.4
2018-Feb-24 05:27 005 1 gusting 3 -19.4
2018-Feb-24 05:22 005 2 gusting 3 -19.4
2018-Feb-24 05:17 005 2 gusting 3 -19.4
2018-Feb-24 05:12 005 1 gusting 3 -18.9
2018-Feb-24 05:07 005 1 gusting 3 -18.9
2018-Feb-24 05:02 005 1 gusting 3 -18.9
2018-Feb-24 04:57 005 1 gusting 3 -18.9
2018-Feb-24 04:52 005 1 gusting 3 -18.9
2018-Feb-24 04:47 005 1 gusting 3 -18.9
2018-Feb-24 04:42 005 1 gusting 3 -18.9
2018-Feb-24 04:37 005 1 gusting 3 -18.9
2018-Feb-24 04:32 005 1 gusting 3 -18.9
2018-Feb-24 04:27 005 2 gusting 3 -18.9
2018-Feb-24 04:22 005 1 gusting 3 -18.9
2018-Feb-24 04:17 005 2 gusting 3 -18.9
2018-Feb-24 04:12 005 2 gusting 3 -18.9
2018-Feb-24 04:07 005 1 gusting 3 -18.9
2018-Feb-24 04:02 005 1 gusting 3 -18.9
2018-Feb-24 03:57 005 1 gusting 3 -18.9
2018-Feb-24 03:52 005 1 gusting 3 -18.3
2018-Feb-24 03:47 005 1 gusting 3 -18.9
2018-Feb-24 03:42 005 1 gusting 3 -18.9
2018-Feb-24 03:37 005 1 gusting 3 -18.9
2018-Feb-24 03:32 005 0 gusting 2 -18.3
2018-Feb-24 03:27 005 -18.3
2018-Feb-24 03:22 005 0 gusting 3 -18.3
2018-Feb-24 03:17 005 0 gusting 3 -18.3
2018-Feb-24 03:12 005 0 gusting 5 -18.3
2018-Feb-24 03:07 005 0 gusting 5 -18.3
2018-Feb-24 03:02 005 1 gusting 5 -18.3
2018-Feb-24 02:57 005 1 gusting 5 -18.3
2018-Feb-24 02:52 005 1 gusting 3 -18.3
2018-Feb-24 02:47 005 0 gusting 3 -18.3
2018-Feb-24 02:42 005 0 gusting 2 -18.3
2018-Feb-24 02:37 005 0 gusting 2 -18.3
2018-Feb-24 02:32 005 0 gusting 2 -18.3
2018-Feb-24 02:27 005 1 gusting 2 -18.3
2018-Feb-24 02:22 005 0 gusting 2 -18.3
2018-Feb-24 02:17 005 1 gusting 2 -18.3
2018-Feb-24 02:12 005 1 gusting 3 -18.3
2018-Feb-24 02:07 005 1 gusting 3 -18.3
2018-Feb-24 02:02 005 1 gusting 4 -17.8
2018-Feb-24 01:57 005 1 gusting 4 -17.8
2018-Feb-24 01:52 005 1 gusting 5 -17.8
2018-Feb-24 01:47 005 2 gusting 5 -17.8
2018-Feb-24 01:42 005 2 gusting 3 -17.8
2018-Feb-24 01:37 005 2 gusting 3 -17.8
2018-Feb-24 01:32 005 2 gusting 3 -17.8
2018-Feb-24 01:27 005 1 gusting 3 -17.8
2018-Feb-24 01:22 005 1 gusting 3 -17.8
2018-Feb-24 01:17 005 1 gusting 3 -17.8
2018-Feb-24 01:12 005 1 gusting 3 -17.8
2018-Feb-24 01:07 005 1 gusting 3 -17.2
2018-Feb-24 01:02 005 1 gusting 3 -17.2
2018-Feb-24 00:57 005 1 gusting 3 -17.2
2018-Feb-24 00:52 005 2 gusting 3 -17.2
2018-Feb-24 00:47 005 2 gusting 3 -17.2
2018-Feb-24 00:42 005 1 gusting 3 -17.2
2018-Feb-24 00:37 005 1 gusting 3 -17.2
2018-Feb-24 00:32 005 1 gusting 3 -17.2
2018-Feb-24 00:27 005 1 gusting 3 -17.2
2018-Feb-24 00:22 005 1 gusting 2 -16.7
2018-Feb-24 00:17 005 1 gusting 2 -16.7
2018-Feb-24 00:12 005 1 gusting 2 -16.7
2018-Feb-24 00:07 005 1 gusting 2 -16.7
2018-Feb-24 00:02 005 1 gusting 3 -16.7
2018-Feb-23 23:57 005 1 gusting 3 -16.7
2018-Feb-23 23:52 005 1 gusting 3 -16.7
2018-Feb-23 23:47 005 2 gusting 3 -16.7
2018-Feb-23 23:42 005 2 gusting 3 -16.7
2018-Feb-23 23:37 005 1 gusting 4 -16.7
2018-Feb-23 23:32 005 1 gusting 4 -16.7
2018-Feb-23 23:27 005 1 gusting 3 -16.7
2018-Feb-23 23:22 005 1 gusting 3 -16.7
2018-Feb-23 23:17 005 1 gusting 4 -16.7
2018-Feb-23 23:12 005 1 gusting 4 -16.7
2018-Feb-23 23:07 005 1 gusting 3 -16.7
2018-Feb-23 23:02 005 2 gusting 3 -17.2